CAPE
0 16 8 24 25 81 73 83 111 27 1 0 0 0 0 0 0 0 1 0 0 0 0 0 0 21 19 24 45 57 55 45 124 101 108 67 44 36
0 19 13 1 1 32 62 76 98 55 75 22 14 0 0 0 0 0 1 0 0 0 0 0 1 0 0 0 12 31 51 87 94 76 84 84 59 47
10 38 22 22 21 18 33 107 92 78 82 33 0 0 0 0 0 1 5 0 0 0 0 0 0 0 0 0 7 19 35 38 41 51 68 86 72 66
7 24 22 31 34 29 25 81 82 24 7 9 0 0 0 0 0 0 0 0 1 0 0 0 0 0 0 0 3 10 1 3 3 17 31 60 55 55
0 4 33 55 56 51 25 0 0 1 0 0 0 0 0 0 0 0 0 0 0 1 0 0 0 0 0 0 0 0 0 0 0 0 0 0 1 9
2 6 3 15 7 30 4 0 0 0 0 0 0 0 0 0 0 0 0 0 0 0 0 0 0 0 0 0 0 0 0 0 0 0 0 0 0 0
0 17 11 4 1 1 0 0 0 0 0 0 0 0 1 0 0 0 0 0 0 0 0 0 0 0 0 0 0 0 0 0 0 0 0 0 0 0
0 3 3 2 0 0 0 0 0 0 0 0 0 0 0 0 0 0 0 0 0 0 0 0 0 0 0 0 0 0 0 0 0 0 0 0 0 0
0 0 0 0 0 0 0 0 0 0 0 0 0 0 0 0 0 0 0 0 0 1 0 0 0 0 0 2 0 0 0 0 0 0 0 0 0 0
0 0 0 0 0 0 0 0 0 0 0 0 0 0 0 0 0 0 0 0 0 1 0 0 0 0 0 0 0 0 0 0 0 0 0 0 0 0
0 0 0 0 0 0 0 0 0 0 0 0 0 0 0 0 1 0 0 0 0 0 1 0 0 0 0 0 1 2 0 0 0 0 0 0 0 0
0 0 0 0 0 0 0 0 0 0 0 1 0 0 2 2 0 0 0 0 0 0 0 0 0 0 0 0 0 0 0 0 0 0 0 0 0 0
0 0 0 0 0 0 0 0 0 0 0 0 0 0 0 0 1 1 0 0 0 0 0 0 0 0 0 0 0 0 0 0 0 0 2 0 0 0
0 0 0 0 0 0 0 0 0 0 0 0 0 0 0 0 1 1 1 1 0 0 0 0 0 0 0 0 0 0 0 0 0 0 0 1 0 0
0 0 0 0 0 0 0 0 0 0 0 0 0 0 0 0 0 0 0 0 0 0 0 0 0 0 0 0 0 0 0 0 0 0 0 0 0 0
0 0 0 0 0 0 0 0 0 0 0 0 0 0 0 0 0 0 0 0 0 0 0 0 0 0 0 0 0 0 0 0 0 0 0 0 0 0
0 0 0 0 0 0 0 0 0 0 0 0 0 0 0 0 0 0 0 0 0 0 0 0 0 0 0 0 0 0 0 0 0 0 0 0 0 0
0 0 0 0 0 0 0 0 0 0 0 0 0 0 0 0 0 0 0 0 0 0 0 0 0 0 1 0 0 0 0 0 0 0 0 0 0 0
0 0 0 0 0 0 0 0 0 0 0 0 0 0 0 0 0 0 0 0 1 0 0 0 0 0 3 1 0 0 0 0 0 0 0 0 0 0
0 0 0 0 0 0 0 0 0 0 0 0 0 0 0 0 0 0 0 0 0 0 0 0 0 0 0 0 0 0 0 0 0 0 0 0 0 0
0 0 0 0 0 0 0 0 0 0 0 0 0 0 0 0 0 0 0 0 0 0 0 0 0 0 0 0 0 0 0 0 0 0 0 0 0 0
2 1 0 0 0 0 0 0 0 0 0 0 0 0 0 0 0 0 0 0 0 1 0 0 0 0 0 0 0 0 0 0 0 0 0 0 0 0
2 0 0 0 0 0 0 0 0 0 0 0 0 0 0 0 0 0 0 0 0 0 0 0 0 0 0 0 0 0 0 0 0 0 0 0 0 0
CIN
-0 -20 -16 -23 -11 -10 -34 -44 -0 -1 -2 -0 -0 -0 -0 -0 -0 -0 -0 -0 -0 -0 -0 -0 -0 -2 -3 -21 -18 -6 -2 -2 -0 -1 -0 -7 -23 -0
-0 -15 -18 -23 -16 -29 -23 -13 -7 -9 -0 -15 -28 -0 -0 -0 -0 -1 -0 -1 -0 -0 -0 -0 -0 -1 -0 -5 -33 -19 -15 -5 -3 -1 -2 -29 -60 -0
-13 -14 -27 -25 -25 -43 -36 -6 -7 -11 -1 -10 -15 -0 -0 -0 -0 -0 -0 -0 -0 -0 -0 -0 -0 -0 -0 -2 -18 -16 -19 -19 -14 -6 -0 -0 -0 -0
-8 -12 -18 -21 -4 -33 -22 -2 -5 -16 -0 -4 -0 -0 -0 -0 -0 -0 -0 -0 -0 -0 -0 -0 -0 -0 -0 -1 -27 -28 -50 -39 -42 -31 -5 -3 -0 -0
-0 -26 -9 -21 -19 -14 -22 -4 -0 -3 -3 -0 -0 -0 -0 -0 -0 -0 -0 -0 -0 -0 -0 -0 -0 -0 -0 -0 -0 -0 -0 -0 -0 -0 -0 -28 -17 -3
-9 -14 -12 -22 -27 -16 -12 -0 -0 -0 -0 -0 -0 -0 -0 -0 -0 -0 -0 -0 -0 -0 -0 -0 -0 -0 -0 -0 -0 -0 -0 -0 -0 -0 -0 -0 -0 -0
-0 -16 -20 -18 -15 -10 -0 -0 -0 -0 -0 -0 -0 -0 -0 -0 -0 -0 -0 -0 -0 -0 -0 -0 -0 -0 -0 -0 -0 -0 -0 -0 -0 -0 -0 -0 -0 -0
-0 -11 -15 -10 -0 -0 -0 -0 -0 -0 -0 -0 -0 -0 -0 -0 -0 -0 -0 -0 -0 -0 -0 -0 -0 -0 -0 -0 -0 -0 -0 -0 -0 -0 -0 -0 -0 -0
-0 -0 -0 -0 -0 -0 -0 -0 -0 -0 -0 -0 -0 -0 -0 -0 -0 -0 -0 -0 -0 -0 -0 -0 -0 -0 -0 -0 -0 -0 -0 -0 -0 -0 -0 -0 -0 -0
-0 -0 -0 -0 -0 -0 -0 -0 -0 -0 -0 -0 -0 -0 -0 -0 -0 -0 -0 -0 -0 -0 -0 -0 -0 -0 -0 -0 -0 -0 -0 -0 -0 -0 -0 -0 -0 -0
-0 -0 -0 -0 -0 -0 -0 -0 -0 -0 -0 -0 -0 -0 -0 -0 -0 -0 -0 -0 -0 -0 -0 -0 -0 -0 -0 -0 -0 -0 -0 -0 -0 -0 -0 -0 -0 -0
-0 -0 -0 -0 -0 -0 -0 -0 -0 -0 -0 -1 -0 -0 -0 -0 -0 -0 -0 -0 -0 -0 -0 -0 -0 -0 -0 -0 -0 -0 -0 -0 -0 -0 -0 -0 -0 -0
-0 -0 -0 -0 -0 -0 -0 -0 -0 -0 -0 -0 -0 -0 -0 -0 -0 -0 -0 -0 -0 -0 -0 -0 -0 -0 -0 -0 -0 -0 -0 -0 -0 -0 -0 -0 -0 -0
-0 -0 -0 -0 -0 -0 -0 -0 -0 -0 -0 -0 -0 -0 -0 -0 -0 -0 -0 -0 -0 -0 -0 -0 -0 -0 -0 -0 -0 -0 -0 -0 -0 -0 -0 -0 -0 -0
-0 -0 -0 -0 -0 -0 -0 -0 -0 -0 -0 -0 -0 -0 -0 -0 -0 -0 -0 -0 -0 -0 -0 -0 -0 -0 -0 -0 -0 -0 -0 -0 -0 -0 -0 -0 -0 -0
-0 -0 -0 -0 -0 -0 -0 -0 -0 -0 -0 -0 -0 -0 -0 -0 -0 -0 -0 -0 -0 -0 -0 -0 -0 -0 -0 -0 -0 -1 -0 -0 -0 -0 -0 -0 -0 -0
-0 -0 -0 -0 -0 -0 -0 -0 -0 -0 -0 -0 -0 -0 -0 -0 -0 -0 -0 -0 -0 -0 -0 -0 -0 -0 -0 -0 -0 -0 -0 -0 -0 -0 -0 -0 -0 -0
-0 -0 -0 -0 -0 -0 -0 -0 -0 -0 -0 -0 -0 -0 -0 -0 -0 -0 -0 -0 -0 -0 -0 -0 -0 -0 -4 -0 -0 -0 -0 -0 -0 -0 -0 -0 -0 -0
-0 -0 -0 -0 -0 -0 -0 -0 -0 -0 -0 -0 -0 -0 -0 -0 -0 -0 -0 -0 -0 -0 -0 -0 -0 -0 -0 -0 -0 -0 -0 -0 -0 -0 -0 -0 -0 -0
-0 -0 -0 -0 -0 -0 -0 -0 -0 -0 -0 -0 -0 -0 -0 -0 -0 -0 -0 -0 -0 -0 -0 -0 -0 -0 -1 -0 -0 -0 -0 -0 -0 -0 -0 -0 -0 -0
-0 -0 -0 -0 -0 -0 -0 -0 -0 -0 -0 -0 -0 -0 -0 -0 -0 -0 -0 -0 -0 -0 -0 -0 -0 -0 -0 -0 -0 -0 -0 -0 -0 -0 -0 -0 -0 -0
-0 -2 -0 -0 -0 -0 -0 -0 -0 -0 -0 -0 -0 -0 -0 -0 -0 -0 -0 -0 -0 -0 -1 -0 -0 -0 -0 -0 -0 -0 -0 -0 -0 -0 -0 -0 -0 -0
-1 -0 -0 -0 -0 -0 -0 -0 -0 -0 -0 -0 -0 -0 -0 -0 -0 -0 -0 -0 -0 -0 -0 -0 -0 -0 -0 -0 -0 -0 -0 -0 -0 -0 -0 -0 -0 -0
Wind_Speed
7 7 5 4 5 5 5 3 5 7 5 5 4 5 4 4 6 8 8 10 20 27 23 24 18 17 18 13 16 16 17 16 17 17 18 19 18 19
7 7 6 5 6 5 6 7 6 8 9 4 4 4 5 3 4 7 8 10 16 13 19 19 24 22 20 18 13 11 13 16 18 19 19 20 21 21
7 6 6 7 6 5 6 7 6 4 7 3 2 2 3 4 4 4 5 6 8 15 15 23 23 17 17 14 12 12 14 19 20 20 20 20 20 21
7 7 6 6 9 8 7 9 5 1 5 3 1 1 3 5 4 5 5 5 9 21 22 19 19 19 16 14 15 16 16 15 18 18 18 19 20 20
5 6 6 4 6 6 4 4 3 3 1 1 2 1 1 2 2 3 5 5 6 21 23 21 21 21 19 17 17 20 19 16 16 19 17 17 17 18
5 4 6 5 5 6 4 4 1 1 1 2 2 3 2 2 4 5 4 5 9 10 15 14 18 21 19 20 19 16 25 20 20 22 21 19 18 19
6 5 6 7 8 5 3 3 4 3 2 3 2 2 3 2 5 4 6 7 6 8 10 8 10 9 9 15 18 19 20 22 22 23 23 20 20 19
5 6 5 8 7 4 7 5 5 4 5 4 4 4 4 3 3 6 8 9 5 2 9 6 10 7 7 7 18 21 20 21 22 24 22 22 20 20
7 6 5 3 6 5 6 6 7 10 9 4 5 5 4 6 6 8 10 11 7 8 12 7 6 8 7 9 20 20 21 22 21 23 23 23 22 20
6 5 5 5 5 5 5 5 5 4 5 5 7 5 5 7 9 8 7 8 9 8 10 6 3 7 6 7 19 19 20 20 22 21 22 23 22 21
5 5 5 5 6 10 5 3 2 0 1 6 5 9 11 14 12 10 9 13 10 5 2 8 4 8 4 5 8 17 18 19 21 21 22 23 23 22
4 6 9 8 7 10 6 5 4 3 3 2 4 8 12 13 16 12 12 12 11 6 4 5 10 7 4 2 5 7 7 15 18 20 21 23 22 9
4 4 3 8 7 10 8 5 5 6 4 4 5 6 6 8 6 7 8 12 10 4 8 7 7 4 4 5 3 5 6 8 7 11 19 21 19 14
6 4 3 7 9 10 7 6 13 7 5 5 5 5 6 6 6 7 8 7 4 9 12 10 7 6 6 5 5 6 6 5 6 7 7 14 14 17
4 5 5 7 8 7 9 13 10 5 5 5 6 5 7 6 7 7 9 9 8 12 8 8 10 7 9 6 8 10 9 5 6 7 7 8 7 5
2 1 0 2 4 5 5 9 5 6 6 6 6 6 6 7 7 7 8 8 9 7 6 6 7 10 6 6 10 11 8 7 9 8 7 6 4 3
2 2 1 1 3 3 4 5 4 5 5 4 6 7 8 7 7 8 7 7 6 9 7 3 6 6 4 12 9 10 9 4 9 9 8 7 7 7
1 1 1 2 4 4 5 4 4 6 5 5 6 7 8 9 7 8 8 6 9 8 8 6 7 5 3 2 12 10 8 7 9 11 8 8 8 7
1 1 2 3 2 4 5 4 5 5 6 6 7 7 7 7 10 9 8 7 8 8 8 5 10 9 10 6 3 15 11 7 10 10 10 8 7 7
1 2 2 3 3 4 4 4 4 5 6 6 7 7 8 8 9 9 9 9 8 8 9 8 10 10 9 7 5 6 15 10 9 9 8 3 2 7
2 2 2 2 3 3 4 4 6 5 6 6 6 7 8 8 9 9 9 12 10 9 10 11 9 8 4 5 5 5 5 8 13 10 8 8 5 3
2 2 2 3 2 3 5 5 5 5 5 6 6 6 7 8 9 9 9 9 9 8 9 7 5 9 3 6 5 10 7 2 13 13 16 12 9 8
2 2 2 2 3 3 3 5 5 5 5 5 6 6 7 7 7 8 9 9 9 8 9 8 8 7 4 5 7 7 5 6 7 8 6 10 10 9
Wind_Direction
246 245 238 250 285 294 301 267 247 271 245 223 224 189 194 225 251 258 243 209 209 185 176 170 185 177 164 138 141 161 154 157 153 147 137 132 131 123
253 245 228 231 244 259 268 270 258 256 271 194 218 187 173 201 236 245 244 208 196 194 162 158 161 148 135 131 132 155 156 141 138 133 133 131 125 131
246 245 225 239 228 232 247 254 248 246 263 293 60 22 162 203 196 213 208 188 175 154 155 143 136 135 128 133 145 145 143 136 128 127 129 129 135 131
274 261 253 229 230 225 232 251 246 344 316 278 343 245 201 218 206 192 182 178 167 141 132 122 124 130 126 135 147 134 133 126 125 124 125 126 130 125
323 322 289 269 254 275 256 246 260 255 197 219 235 266 253 194 173 194 169 149 151 139 127 130 135 130 128 121 119 131 118 122 120 112 110 107 110 112
294 284 269 259 261 253 241 232 196 147 189 229 221 220 203 225 190 169 143 137 136 131 122 133 128 123 128 127 107 123 122 117 115 110 108 106 106 106
294 262 248 258 244 234 186 180 205 203 205 218 234 203 204 177 178 178 146 130 103 120 113 116 120 108 123 114 126 113 112 117 118 113 111 108 108 107
282 270 241 250 244 210 209 207 180 202 221 225 250 215 217 205 142 154 139 141 106 85 114 106 118 111 114 113 125 119 120 116 119 116 113 111 106 104
273 267 256 248 202 197 217 229 232 230 227 227 213 205 181 180 156 156 169 154 134 142 124 96 98 106 102 118 116 119 119 119 120 117 117 113 107 107
257 247 248 231 204 194 201 214 233 243 217 221 216 197 188 167 175 156 136 111 103 123 125 107 120 103 107 110 115 122 120 122 120 120 119 115 115 113
264 258 239 235 222 205 201 191 200 276 224 213 185 162 156 156 149 130 139 133 129 124 70 114 121 104 93 113 128 121 121 124 124 125 125 124 122 119
257 230 230 231 223 177 181 180 179 193 148 127 146 145 151 156 155 152 149 142 136 117 165 100 131 124 94 45 130 124 131 130 132 136 137 137 131 121
260 254 240 236 199 180 185 179 186 156 148 134 128 139 147 144 147 147 151 146 152 89 159 120 157 118 89 128 111 128 138 145 147 149 151 151 144 139
268 244 236 237 196 178 173 159 149 140 138 134 128 130 138 146 142 143 136 134 59 130 148 137 136 146 124 125 138 153 148 150 147 153 156 161 169 155
245 247 259 246 205 168 165 150 147 146 147 147 147 142 149 144 131 122 126 128 113 137 139 151 153 130 146 146 146 162 150 173 160 158 158 165 178 179
285 326 259 184 142 130 124 149 153 157 160 156 149 137 140 142 141 140 135 126 130 151 125 131 145 140 149 132 146 159 159 173 166 167 162 165 175 162
99 63 70 118 124 118 128 151 138 138 150 146 148 148 151 140 145 148 148 136 130 155 147 147 161 135 139 141 151 167 161 140 164 163 160 174 190 191
123 159 162 154 155 149 152 149 147 160 156 150 154 156 157 156 147 149 154 150 148 160 158 165 154 149 134 149 165 162 165 154 170 169 173 182 187 189
241 169 169 173 155 162 160 165 162 174 155 161 162 163 160 157 156 157 158 154 154 163 169 157 168 175 177 161 142 175 161 158 168 176 185 186 181 186
249 190 173 171 158 167 170 167 150 150 166 165 166 168 169 167 168 170 171 169 158 160 170 182 181 191 184 170 142 174 174 162 172 174 177 160 139 162
207 203 177 165 159 167 171 166 160 167 168 166 168 170 171 174 180 177 176 174 169 167 176 190 188 155 122 97 101 157 162 186 171 169 167 172 166 143
241 179 175 156 156 166 193 157 152 156 167 171 171 171 173 176 178 176 179 178 179 180 178 165 148 165 137 165 160 160 164 105 178 173 171 169 173 189
224 178 167 164 155 156 168 180 160 168 172 169 172 173 171 175 174 176 179 179 180 171 162 157 167 185 169 157 153 162 138 148 161 165 166 142 121 113